Location: Palomar Observatory
(33.3560°N, 116.8630°W)
Time: 13:32:06
(UTC-07:00)

Iridium 57 - Visible Passes

Search period start: 30 March 2017 00:00
Search period end: 09 April 2017 00:00
Orbit: 776 x 779 km, 86.4° (Epoch: 29 March)

Date Brightness Start Highest point End Pass type
(mag) Time Alt. Az. Time Alt. Az. Time Alt. Az.
30 Mar 5.7 21:21:57 10° N 21:26:33 69° NNW 21:26:33 69° NNW visible
31 Mar 5.6 20:48:32 10° N 20:53:36 51° E 20:53:42 51° E visible
31 Mar 8.1 22:31:06 10° NW 22:33:46 14° W 22:34:12 14° W visible
01 Apr 6.5 20:15:34 10° NNE 20:19:54 26° E 20:20:53 25° E visible
01 Apr 7.3 21:56:08 10° NNW 22:00:30 28° W 22:01:24 26° WSW visible
02 Apr 7.2 19:43:34 10° NE 19:46:05 13° ENE 19:48:09 11° ESE visible
02 Apr 6.1 21:22:01 10° NNW 21:27:06 54° W 21:28:40 39° SW visible
03 Apr 5.4 20:48:22 10° N 20:53:36 77° E 20:55:59 33° S visible
04 Apr 6.0 20:15:06 10° NNE 20:19:58 39° E 20:23:23 18° SE visible
04 Apr 7.9 21:56:46 10° NW 22:00:19 19° W 22:03:51 10° SW visible
05 Apr 6.8 19:42:24 10° NNE 19:46:13 20° E 19:50:01 10° SE visible
05 Apr 6.9 21:22:15 10° NNW 21:26:59 36° W 21:31:24 11° SSW visible
06 Apr 5.7 20:48:19 10° N 20:53:32 72° W 20:58:42 10° S visible
07 Apr 5.5 20:14:49 10° N 20:19:58 58° E 20:25:06 10° SSE visible
07 Apr 8.4 21:58:01 10° NW 22:00:04 12° W 22:02:07 10° WSW visible
08 Apr 6.3 19:41:46 10° NNE 19:46:18 30° E 19:50:49 10° SE visible
08 Apr 7.7 21:22:40 10° NNW 21:26:49 24° W 21:30:56 10° SW visible
